SCP
-0 -0 -0 -0 -0 -0 -0 -0 0 0 0 0 1 1 2 2 4 5 3 7 4 4 3 1 1 2 4 2 1 1 0 0 0 0 0 0 0 0 0 0 0 0 0
-0 -0 -0 -0 -1 -0 -0 -0 -0 -0 0 0 1 1 2 3 6 7 3 2 3 2 0 0 1 3 2 2 1 1 1 1 0 0 0 0 0 0 0 0 0 0 0
-0 -0 -1 -1 -0 -0 -0 -0 0 0 0 1 1 1 2 3 6 5 0 0 1 1 1 1 2 2 2 1 1 1 0 0 0 0 0 0 0 0 0 0 0 0 0
-0 -0 -1 -0 -0 -0 -0 0 0 0 0 1 1 1 1 4 3 2 1 1 1 1 1 2 2 2 1 1 0 1 0 0 0 0 0 0 0 0 0 0 0 0 0
-0 -1 -1 -0 0 0 0 0 0 0 0 1 1 1 2 3 2 1 2 1 1 1 2 2 2 0 0 0 0 0 0 0 0 0 0 0 0 0 0 0 0 0 -0
-0 -1 -0 -0 0 0 0 0 0 1 1 2 1 2 2 2 1 1 1 1 1 2 2 1 0 0 0 0 0 0 0 0 0 0 0 0 0 0 0 0 0 0 0
-0 -0 -0 0 0 0 0 1 1 2 3 4 3 2 3 1 1 1 1 1 2 2 1 1 0 0 0 0 0 0 0 0 0 0 0 0 0 0 0 0 0 0 -0
-0 -0 -0 0 0 0 1 1 2 3 5 5 5 4 2 1 0 1 0 2 1 1 1 0 0 0 0 0 0 0 0 0 0 0 0 0 0 0 0 0 0 0 0
0 0 0 0 0 1 1 1 2 5 5 5 4 2 1 0 0 1 0 1 1 1 0 0 0 0 0 0 0 0 0 0 0 0 0 0 0 0 0 0 0 0 0
0 1 1 1 1 1 2 3 6 5 5 4 2 1 0 0 0 0 0 1 1 0 0 0 0 0 0 0 0 0 0 0 0 0 0 0 0 0 0 0 0 0 0
1 2 2 2 1 2 3 5 4 3 2 1 1 1 0 0 0 0 0 0 0 0 0 0 0 0 0 0 0 0 0 0 0 0 0 0 0 0 0 0 -0 0 0
2 2 2 2 2 2 3 3 1 1 1 0 0 0 0 0 0 0 0 0 0 0 0 0 0 0 0 0 0 0 0 0 0 0 0 0 0 0 0 0 0 0 0
3 3 2 2 2 3 2 1 0 0 0 0 0 0 0 0 0 0 0 0 0 0 0 0 0 0 0 0 0 0 0 0 0 0 0 0 0 0 0 0 0 0 0
2 2 2 2 3 2 1 0 0 0 0 0 0 0 0 0 0 0 0 0 0 0 0 0 0 0 0 0 0 0 0 0 0 0 0 0 0 0 0 0 0 0 0
2 2 2 1 0 0 0 0 0 0 0 0 0 0 0 0 0 0 0 0 0 0 0 0 0 0 0 0 0 0 0 0 0 0 0 0 0 0 0 0 0 0 0
2 2 1 0 0 0 0 0 -0 0 -0 0 0 0 0 0 0 0 0 0 0 0 0 0 0 0 0 0 0 0 0 0 0 0 0 0 0 0 0 -0 -0 -0 -0
1 0 0 0 0 0 0 0 0 0 -0 0 0 0 0 0 0 0 0 0 0 0 0 0 0 0 0 0 0 0 0 0 0 0 0 0 0 -0 -0 -0 -0 -0 -0
0 0 0 0 0 0 0 0 0 0 0 0 0 0 0 0 0 0 0 0 0 0 0 0 0 0 0 0 0 0 0 0 0 0 0 0 -0 -0 -0 -0 -0 -0 -0
0 0 1 0 0 0 0 0 0 0 0 0 0 0 0 0 0 0 0 0 0 0 0 0 0 0 0 0 0 0 0 0 0 0 0 0 -0 -0 -0 0 -0 -0 -0
1 1 0 0 0 0 0 0 0 0 0 0 0 0 0 0 0 0 0 0 0 0 0 0 0 0 0 0 0 0 0 0 0 0 0 0 -0 -0 -0 -0 -0 0 -0
1 0 0 0 0 0 0 0 0 0 0 0 0 0 0 0 0 0 0 0 0 0 0 0 0 0 0 0 0 0 0 0 0 0 0 0 0 0 0 -0 0 0 0
1 1 0 0 0 0 0 0 0 0 0 0 0 0 0 0 0 0 0 0 0 0 0 0 0 0 0 0 0 0 0 0 0 0 0 0 0 0 0 0 0 0 0
1 0 0 0 0 0 0 0 0 0 0 0 0 0 0 0 0 0 0 0 0 0 0 0 0 0 0 0 0 0 0 0 0 -0 -0 0 0 0 0 0 0 0 0
0 0 0 0 0 0 0 0 0 0 0 0 0 0 0 0 0 0 0 0 0 0 0 0 0 0 0 0 0 0 0 0 0 0 -0 0 0 0 0 0 0 0 0
0 0 0 0 0 0 0 0 0 0 0 0 0 0 0 0 0 0 0 0 0 0 0 0 0 0 0 0 0 0 0 -0 -0 -0 -0 0 0 0 0 0 -0 -0 -0
0 0 0 0 0 0 0 0 0 0 0 0 0 0 0 0 0 0 0 0 0 0 0 0 0 0 0 0 0 0 0 0 -0 -0 -0 0 0 0 0 0 -0 -0 -0
Wind_Speed_500mb
67 66 66 66 66 64 63 60 59 58 57 49 49 48 43 39 40 35 25 39 57 56 59 47 44 38 27 18 12 17 21 26 35 46 46 47 56 48 46 42 47 50 56
62 61 61 59 60 64 63 60 60 58 57 55 51 47 43 38 45 40 30 78 69 60 50 38 39 29 20 13 13 18 22 26 33 45 49 47 43 45 45 55 47 51 62
67 67 66 65 65 64 61 57 59 58 57 54 47 44 36 38 48 43 63 54 54 37 28 32 26 17 10 10 12 16 23 28 34 41 45 40 40 40 49 47 52 56 60
63 66 65 62 59 58 60 59 54 53 48 44 40 35 34 40 38 41 59 58 35 13 15 19 14 8 7 7 11 19 25 39 32 35 37 35 36 40 42 50 56 61 73
56 54 52 54 56 57 57 51 45 42 35 34 33 33 36 35 31 34 42 35 18 10 19 12 10 12 6 12 14 27 38 28 27 29 30 31 35 44 48 50 53 67 70
58 56 55 57 52 49 43 38 35 34 31 32 33 33 36 32 27 26 29 26 15 22 20 18 6 7 13 18 23 27 28 27 21 21 23 30 36 41 47 50 54 75 71
59 56 49 42 39 32 27 24 23 23 24 27 29 31 33 29 26 26 28 22 24 23 19 10 7 11 12 18 19 20 21 21 20 22 23 27 35 44 53 57 60 68 62
57 46 40 35 28 29 22 19 18 20 24 26 29 29 31 28 30 32 35 33 26 20 17 16 15 9 11 11 11 9 9 10 17 16 21 26 35 43 48 50 53 59 53
45 44 39 28 26 26 20 17 18 24 27 28 31 32 32 47 35 32 35 28 27 25 24 18 12 7 5 11 12 12 9 11 15 19 22 30 34 38 49 45 55 71 76
45 39 34 30 32 28 26 24 26 26 29 37 36 34 43 45 42 38 35 30 31 27 24 19 11 3 6 14 15 13 10 13 17 17 21 24 28 34 45 50 55 70 70
41 39 38 40 35 33 26 26 30 31 38 42 48 46 42 40 44 40 33 30 27 27 24 18 9 2 10 15 15 15 17 18 22 20 21 23 27 28 29 34 69 68 71
46 45 43 39 34 28 25 32 35 41 48 53 58 49 40 45 43 36 27 24 31 27 23 17 7 6 12 14 16 18 23 25 16 19 22 26 27 27 24 25 40 72 80
51 45 41 37 31 27 31 39 45 48 55 57 55 48 45 48 44 35 27 28 26 25 19 12 6 8 11 15 18 17 24 15 17 20 23 26 27 26 25 26 28 35 50
49 45 39 34 33 35 39 41 49 53 56 53 45 40 39 41 43 35 31 29 24 17 15 11 8 10 10 12 17 17 16 18 19 19 22 23 24 26 28 25 26 28 33
47 42 37 33 35 46 51 50 51 49 40 37 37 37 43 40 36 30 30 29 22 15 14 11 9 7 8 8 11 13 15 16 17 20 20 22 24 26 30 29 28 29 33
43 39 35 42 47 50 54 58 56 46 39 38 39 36 40 33 33 31 30 26 18 16 17 12 9 8 8 8 10 12 15 16 17 18 20 22 25 26 28 30 32 35 38
30 40 47 49 56 53 53 52 49 44 34 34 40 39 37 38 37 34 33 26 19 20 14 10 9 9 8 10 11 11 11 13 18 17 19 21 22 24 27 29 32 34 38
41 44 44 45 44 43 41 43 47 49 51 50 44 40 36 38 36 34 30 23 19 18 12 11 10 10 10 10 12 12 13 13 15 16 18 19 21 22 24 27 30 32 35
47 43 41 43 46 47 38 39 38 39 39 46 51 46 40 39 34 32 27 15 15 13 11 11 12 12 12 11 12 14 14 13 14 15 16 18 20 19 22 26 31 33 33
42 45 45 54 46 41 42 41 40 39 38 39 42 49 50 47 45 42 25 20 17 14 13 13 13 14 14 13 13 15 11 11 13 13 15 17 19 19 19 21 24 26 28
42 45 45 43 41 43 42 41 39 38 37 38 37 46 46 41 37 34 26 22 19 17 15 14 13 15 15 14 14 15 13 10 12 13 14 15 17 19 19 20 22 23 24
40 51 43 44 43 42 40 39 37 34 37 39 38 44 43 36 35 34 29 25 21 19 16 19 17 15 15 15 16 15 14 11 12 12 14 15 16 17 18 19 20 20 21
44 48 47 45 42 43 42 37 38 40 41 41 40 51 53 37 38 35 31 27 24 20 19 19 19 18 19 18 18 19 14 13 13 14 13 14 17 17 17 18 19 18 16
45 48 48 44 42 41 39 40 39 42 41 41 41 48 45 40 40 37 33 30 26 23 20 19 18 19 20 19 20 19 18 19 16 17 17 16 19 21 17 18 19 20 20
45 47 45 44 42 43 43 42 42 43 42 41 42 45 44 42 42 40 36 32 29 25 23 22 21 22 22 22 22 21 21 24 24 27 16 19 20 21 18 17 19 20 20
46 46 45 44 44 44 45 46 46 46 45 44 43 44 44 45 44 42 39 36 30 26 24 24 25 25 25 25 23 22 23 25 26 25 27 18 19 19 19 20 21 19 19
Wind_Direction_500mb
227 232 236 239 243 246 249 252 255 258 262 265 261 256 255 251 244 246 241 277 289 281 284 288 278 290 270 277 294 288 293 298 302 308 309 309 314 318 319 316 319 324 321
221 226 232 237 241 247 251 254 256 256 259 260 259 259 252 238 240 226 198 300 282 286 276 281 284 264 261 252 292 287 296 308 312 310 310 314 317 316 318 320 321 324 321
225 228 231 236 242 248 255 260 259 257 257 257 256 251 245 236 244 231 216 267 277 285 265 265 257 242 236 256 286 295 310 307 306 301 311 318 318 325 322 325 322 327 328
226 231 235 240 245 249 252 253 252 253 249 246 242 242 243 238 248 238 234 254 275 268 247 234 222 192 238 280 310 313 314 312 312 312 313 321 325 325 331 332 332 334 329
226 231 236 240 244 247 250 252 253 251 243 237 232 230 236 231 239 244 242 268 238 217 186 201 167 203 262 300 299 291 304 314 313 317 323 327 334 338 340 337 331 333 347
228 233 240 243 247 252 252 252 251 247 234 228 223 215 220 216 225 238 221 243 173 173 186 200 218 286 292 288 293 299 309 323 324 331 334 337 336 342 340 340 339 348 337
231 234 236 241 246 248 249 239 230 221 219 221 208 200 207 202 208 210 192 163 163 182 195 172 143 264 275 290 305 320 338 340 340 350 343 342 342 348 354 352 354 348 346
226 230 236 239 237 234 231 233 211 194 198 197 192 189 184 194 182 174 155 170 166 167 172 208 220 239 272 306 335 338 332 334 348 7 357 355 359 360 2 9 351 349 4
224 224 226 222 210 201 189 188 179 186 184 178 169 172 184 158 159 163 153 149 159 172 191 195 195 234 299 342 356 358 358 357 356 17 16 13 13 15 12 11 6 12 18
213 212 205 193 189 171 167 168 173 169 164 158 156 169 160 144 151 157 155 157 167 174 178 177 180 206 358 1 7 12 14 26 23 18 18 13 12 19 16 20 21 24 20
192 188 181 176 161 164 166 166 165 161 154 151 156 158 148 145 147 159 161 151 162 155 162 157 170 85 14 11 13 35 46 48 16 23 22 20 19 20 24 26 34 34 32
174 170 163 153 156 155 159 155 152 154 154 157 159 146 146 148 149 152 157 157 154 153 148 156 138 50 21 20 41 48 56 44 29 32 26 23 21 21 23 31 20 38 43
159 151 148 147 148 146 153 154 153 158 159 160 154 147 148 154 153 156 155 155 156 147 153 139 106 49 37 39 49 55 52 45 42 42 33 26 24 22 35 31 25 27 32
148 146 148 150 146 145 148 152 155 160 161 161 156 149 151 156 161 159 158 159 151 153 144 132 81 53 78 56 46 41 43 48 55 46 39 34 32 33 38 40 40 38 47
150 148 146 145 149 148 146 150 160 159 157 158 160 158 159 157 162 159 162 152 148 149 144 117 102 96 77 66 58 62 58 50 47 54 48 44 43 41 42 45 49 49 53
153 151 150 150 151 151 150 154 157 161 167 160 160 157 158 164 156 154 155 150 144 142 125 132 128 116 108 86 75 63 59 53 53 53 53 50 47 52 51 50 52 56 55
160 155 154 154 153 156 159 158 157 156 160 164 164 164 158 155 157 158 158 154 147 124 134 135 131 130 118 100 91 87 76 72 61 62 59 59 54 54 59 59 57 60 61
152 152 147 151 153 151 152 156 162 162 158 160 160 160 161 163 163 165 160 157 144 129 149 142 142 138 132 115 105 93 81 71 65 73 68 66 61 65 69 67 64 67 67
152 150 153 153 157 156 150 153 156 156 158 166 167 165 167 171 169 164 156 148 158 156 151 144 149 145 141 129 116 110 105 101 93 83 80 79 73 76 73 66 68 75 73
154 159 159 162 154 154 157 158 162 162 165 162 169 179 176 177 175 173 167 166 165 167 159 156 159 153 152 141 128 115 98 90 85 87 94 89 87 85 88 86 82 78 73
166 165 165 162 161 162 163 164 167 168 163 167 173 187 187 175 176 175 175 172 170 171 164 166 158 163 156 147 133 124 116 110 100 103 102 103 96 88 95 95 88 83 79
170 167 163 165 168 167 167 167 166 167 168 167 176 182 180 171 180 180 176 174 172 168 170 169 167 157 161 163 145 136 131 134 118 113 116 112 107 101 103 105 96 86 80
170 167 168 171 170 173 172 172 172 173 174 179 179 179 177 176 182 180 179 175 174 176 179 172 169 170 170 159 151 142 146 152 139 123 121 123 121 111 109 110 106 102 101
174 174 174 175 177 175 176 175 176 176 176 177 178 175 174 181 180 180 179 175 178 179 179 176 172 174 175 164 164 156 155 153 140 140 121 136 137 117 120 117 117 109 102
183 182 181 181 185 177 180 176 178 178 176 178 178 179 181 181 181 180 180 177 180 183 183 180 181 183 178 166 161 168 165 164 163 147 128 140 146 134 131 126 122 121 115
192 189 188 188 183 183 182 180 180 178 179 180 182 183 185 182 184 181 180 179 180 184 188 183 187 184 182 178 178 171 167 166 164 156 136 141 142 141 142 137 131 126 121
Wind_Speed_850mb
67 66 66 66 66 64 63 60 59 58 57 49 49 48 43 39 40 35 25 39 57 56 59 47 44 38 27 18 12 17 21 26 35 46 46 47 56 48 46 42 47 50 56
62 61 61 59 60 64 63 60 60 58 57 55 51 47 43 38 45 40 30 78 69 60 50 38 39 29 20 13 13 18 22 26 33 45 49 47 43 45 45 55 47 51 62
67 67 66 65 65 64 61 57 59 58 57 54 47 44 36 38 48 43 63 54 54 37 28 32 26 17 10 10 12 16 23 28 34 41 45 40 40 40 49 47 52 56 60
63 66 65 62 59 58 60 59 54 53 48 44 40 35 34 40 38 41 59 58 35 13 15 19 14 8 7 7 11 19 25 39 32 35 37 35 36 40 42 50 56 61 73
56 54 52 54 56 57 57 51 45 42 35 34 33 33 36 35 31 34 42 35 18 10 19 12 10 12 6 12 14 27 38 28 27 29 30 31 35 44 48 50 53 67 70
58 56 55 57 52 49 43 38 35 34 31 32 33 33 36 32 27 26 29 26 15 22 20 18 6 7 13 18 23 27 28 27 21 21 23 30 36 41 47 50 54 75 71
59 56 49 42 39 32 27 24 23 23 24 27 29 31 33 29 26 26 28 22 24 23 19 10 7 11 12 18 19 20 21 21 20 22 23 27 35 44 53 57 60 68 62
57 46 40 35 28 29 22 19 18 20 24 26 29 29 31 28 30 32 35 33 26 20 17 16 15 9 11 11 11 9 9 10 17 16 21 26 35 43 48 50 53 59 53
45 44 39 28 26 26 20 17 18 24 27 28 31 32 32 47 35 32 35 28 27 25 24 18 12 7 5 11 12 12 9 11 15 19 22 30 34 38 49 45 55 71 76
45 39 34 30 32 28 26 24 26 26 29 37 36 34 43 45 42 38 35 30 31 27 24 19 11 3 6 14 15 13 10 13 17 17 21 24 28 34 45 50 55 70 70
41 39 38 40 35 33 26 26 30 31 38 42 48 46 42 40 44 40 33 30 27 27 24 18 9 2 10 15 15 15 17 18 22 20 21 23 27 28 29 34 69 68 71
46 45 43 39 34 28 25 32 35 41 48 53 58 49 40 45 43 36 27 24 31 27 23 17 7 6 12 14 16 18 23 25 16 19 22 26 27 27 24 25 40 72 80
51 45 41 37 31 27 31 39 45 48 55 57 55 48 45 48 44 35 27 28 26 25 19 12 6 8 11 15 18 17 24 15 17 20 23 26 27 26 25 26 28 35 50
49 45 39 34 33 35 39 41 49 53 56 53 45 40 39 41 43 35 31 29 24 17 15 11 8 10 10 12 17 17 16 18 19 19 22 23 24 26 28 25 26 28 33
47 42 37 33 35 46 51 50 51 49 40 37 37 37 43 40 36 30 30 29 22 15 14 11 9 7 8 8 11 13 15 16 17 20 20 22 24 26 30 29 28 29 33
43 39 35 42 47 50 54 58 56 46 39 38 39 36 40 33 33 31 30 26 18 16 17 12 9 8 8 8 10 12 15 16 17 18 20 22 25 26 28 30 32 35 38
30 40 47 49 56 53 53 52 49 44 34 34 40 39 37 38 37 34 33 26 19 20 14 10 9 9 8 10 11 11 11 13 18 17 19 21 22 24 27 29 32 34 38
41 44 44 45 44 43 41 43 47 49 51 50 44 40 36 38 36 34 30 23 19 18 12 11 10 10 10 10 12 12 13 13 15 16 18 19 21 22 24 27 30 32 35
47 43 41 43 46 47 38 39 38 39 39 46 51 46 40 39 34 32 27 15 15 13 11 11 12 12 12 11 12 14 14 13 14 15 16 18 20 19 22 26 31 33 33
42 45 45 54 46 41 42 41 40 39 38 39 42 49 50 47 45 42 25 20 17 14 13 13 13 14 14 13 13 15 11 11 13 13 15 17 19 19 19 21 24 26 28
42 45 45 43 41 43 42 41 39 38 37 38 37 46 46 41 37 34 26 22 19 17 15 14 13 15 15 14 14 15 13 10 12 13 14 15 17 19 19 20 22 23 24
40 51 43 44 43 42 40 39 37 34 37 39 38 44 43 36 35 34 29 25 21 19 16 19 17 15 15 15 16 15 14 11 12 12 14 15 16 17 18 19 20 20 21
44 48 47 45 42 43 42 37 38 40 41 41 40 51 53 37 38 35 31 27 24 20 19 19 19 18 19 18 18 19 14 13 13 14 13 14 17 17 17 18 19 18 16
45 48 48 44 42 41 39 40 39 42 41 41 41 48 45 40 40 37 33 30 26 23 20 19 18 19 20 19 20 19 18 19 16 17 17 16 19 21 17 18 19 20 20
45 47 45 44 42 43 43 42 42 43 42 41 42 45 44 42 42 40 36 32 29 25 23 22 21 22 22 22 22 21 21 24 24 27 16 19 20 21 18 17 19 20 20
46 46 45 44 44 44 45 46 46 46 45 44 43 44 44 45 44 42 39 36 30 26 24 24 25 25 25 25 23 22 23 25 26 25 27 18 19 19 19 20 21 19 19
Wind_Direction_850mb
227 232 236 239 243 246 249 252 255 258 262 265 261 256 255 251 244 246 241 277 289 281 284 288 278 290 270 277 294 288 293 298 302 308 309 309 314 318 319 316 319 324 321
221 226 232 237 241 247 251 254 256 256 259 260 259 259 252 238 240 226 198 300 282 286 276 281 284 264 261 252 292 287 296 308 312 310 310 314 317 316 318 320 321 324 321
225 228 231 236 242 248 255 260 259 257 257 257 256 251 245 236 244 231 216 267 277 285 265 265 257 242 236 256 286 295 310 307 306 301 311 318 318 325 322 325 322 327 328
226 231 235 240 245 249 252 253 252 253 249 246 242 242 243 238 248 238 234 254 275 268 247 234 222 192 238 280 310 313 314 312 312 312 313 321 325 325 331 332 332 334 329
226 231 236 240 244 247 250 252 253 251 243 237 232 230 236 231 239 244 242 268 238 217 186 201 167 203 262 300 299 291 304 314 313 317 323 327 334 338 340 337 331 333 347
228 233 240 243 247 252 252 252 251 247 234 228 223 215 220 216 225 238 221 243 173 173 186 200 218 286 292 288 293 299 309 323 324 331 334 337 336 342 340 340 339 348 337
231 234 236 241 246 248 249 239 230 221 219 221 208 200 207 202 208 210 192 163 163 182 195 172 143 264 275 290 305 320 338 340 340 350 343 342 342 348 354 352 354 348 346
226 230 236 239 237 234 231 233 211 194 198 197 192 189 184 194 182 174 155 170 166 167 172 208 220 239 272 306 335 338 332 334 348 7 357 355 359 360 2 9 351 349 4
224 224 226 222 210 201 189 188 179 186 184 178 169 172 184 158 159 163 153 149 159 172 191 195 195 234 299 342 356 358 358 357 356 17 16 13 13 15 12 11 6 12 18
213 212 205 193 189 171 167 168 173 169 164 158 156 169 160 144 151 157 155 157 167 174 178 177 180 206 358 1 7 12 14 26 23 18 18 13 12 19 16 20 21 24 20
192 188 181 176 161 164 166 166 165 161 154 151 156 158 148 145 147 159 161 151 162 155 162 157 170 85 14 11 13 35 46 48 16 23 22 20 19 20 24 26 34 34 32
174 170 163 153 156 155 159 155 152 154 154 157 159 146 146 148 149 152 157 157 154 153 148 156 138 50 21 20 41 48 56 44 29 32 26 23 21 21 23 31 20 38 43
159 151 148 147 148 146 153 154 153 158 159 160 154 147 148 154 153 156 155 155 156 147 153 139 106 49 37 39 49 55 52 45 42 42 33 26 24 22 35 31 25 27 32
148 146 148 150 146 145 148 152 155 160 161 161 156 149 151 156 161 159 158 159 151 153 144 132 81 53 78 56 46 41 43 48 55 46 39 34 32 33 38 40 40 38 47
150 148 146 145 149 148 146 150 160 159 157 158 160 158 159 157 162 159 162 152 148 149 144 117 102 96 77 66 58 62 58 50 47 54 48 44 43 41 42 45 49 49 53
153 151 150 150 151 151 150 154 157 161 167 160 160 157 158 164 156 154 155 150 144 142 125 132 128 116 108 86 75 63 59 53 53 53 53 50 47 52 51 50 52 56 55
160 155 154 154 153 156 159 158 157 156 160 164 164 164 158 155 157 158 158 154 147 124 134 135 131 130 118 100 91 87 76 72 61 62 59 59 54 54 59 59 57 60 61
152 152 147 151 153 151 152 156 162 162 158 160 160 160 161 163 163 165 160 157 144 129 149 142 142 138 132 115 105 93 81 71 65 73 68 66 61 65 69 67 64 67 67
152 150 153 153 157 156 150 153 156 156 158 166 167 165 167 171 169 164 156 148 158 156 151 144 149 145 141 129 116 110 105 101 93 83 80 79 73 76 73 66 68 75 73
154 159 159 162 154 154 157 158 162 162 165 162 169 179 176 177 175 173 167 166 165 167 159 156 159 153 152 141 128 115 98 90 85 87 94 89 87 85 88 86 82 78 73
166 165 165 162 161 162 163 164 167 168 163 167 173 187 187 175 176 175 175 172 170 171 164 166 158 163 156 147 133 124 116 110 100 103 102 103 96 88 95 95 88 83 79
170 167 163 165 168 167 167 167 166 167 168 167 176 182 180 171 180 180 176 174 172 168 170 169 167 157 161 163 145 136 131 134 118 113 116 112 107 101 103 105 96 86 80
170 167 168 171 170 173 172 172 172 173 174 179 179 179 177 176 182 180 179 175 174 176 179 172 169 170 170 159 151 142 146 152 139 123 121 123 121 111 109 110 106 102 101
174 174 174 175 177 175 176 175 176 176 176 177 178 175 174 181 180 180 179 175 178 179 179 176 172 174 175 164 164 156 155 153 140 140 121 136 137 117 120 117 117 109 102
183 182 181 181 185 177 180 176 178 178 176 178 178 179 181 181 181 180 180 177 180 183 183 180 181 183 178 166 161 168 165 164 163 147 128 140 146 134 131 126 122 121 115
192 189 188 188 183 183 182 180 180 178 179 180 182 183 185 182 184 181 180 179 180 184 188 183 187 184 182 178 178 171 167 166 164 156 136 141 142 141 142 137 131 126 121